Vertical_Velocity
2 -0 1 -0 -2 -0 2 2 -0 0 1 -0 2 -2 1 0 -3 -1 -1 1 -0 2 -1 -1 -1 -0 0 -1 -1 -1 -0 1 1 0 -0 -0 0 1 0 1 0 -1 -1 -0 1 2 0 2 0
-0 2 1 -0 -1 1 3 -1 0 -0 -1 2 0 -1 -0 -2 -2 -2 0 -2 -0 -0 0 -1 0 -0 -0 -0 -2 -0 -0 0 0 -0 -1 -1 -1 -1 -1 -1 -0 0 -1 0 0 0 -0 0 0
2 0 -1 -3 -2 5 3 -3 -1 0 2 2 -1 -0 0 -0 -2 -3 -1 -1 -1 -1 -0 -1 -1 -0 0 -0 -0 -0 -0 -1 -1 -1 -0 -1 0 -0 -1 -0 0 0 -0 -1 -1 -1 1 2 1
1 -2 -2 -8 7 4 3 -4 3 1 -1 -2 -0 -1 2 2 1 -3 -2 -2 -1 0 -1 -1 -1 -1 1 1 -1 -0 -1 -0 -1 -1 -0 -0 1 0 -0 0 -0 0 1 0 -0 -0 0 0 1
-0 1 -8 -2 4 9 2 -6 -0 1 -2 -3 -3 0 3 1 -0 -0 -0 -0 -2 -1 -0 0 -1 -1 -1 -0 0 -2 0 -1 -1 -1 -1 -1 -1 -1 -1 -0 0 0 -0 0 -0 -0 1 1 1
-4 -3 -5 2 7 5 3 -3 -3 -1 0 -2 -1 -1 1 -1 1 1 1 1 -1 -0 -0 -0 -1 -2 -2 -1 0 -0 0 -0 -1 -2 -1 0 -0 -1 -0 -1 -1 -0 -0 1 -0 -0 0 1 1
-2 -1 3 4 6 -7 3 -1 -4 -5 1 6 1 -1 -3 2 -0 3 0 -1 1 1 0 1 0 -0 -0 -1 -1 -2 -1 -0 0 -1 -1 -1 -1 -1 -2 -1 -1 -1 -1 -0 -1 -1 -0 1 1
-3 -4 -4 2 7 9 -5 -2 -7 -0 1 -2 2 1 2 4 -3 1 2 1 -0 1 -0 2 1 1 -1 -2 -1 -0 -1 -1 -1 -1 -1 -1 -0 -1 1 -1 -1 -1 -1 -0 -0 -1 1 -1 2
2 -12 -1 6 3 12 -5 -2 -4 -2 2 -2 5 2 -4 7 4 2 -1 3 -0 -1 0 0 -1 -1 -0 -0 -0 -0 -0 0 0 -1 -0 0 -1 0 -0 1 -0 0 1 -0 1 -0 0 -0 2
-12 -6 12 7 8 3 -8 -3 -1 -3 -2 -0 3 2 -3 4 2 2 4 1 2 1 -1 -0 2 0 -1 -2 0 -1 -1 -2 -1 1 -1 -1 -0 -1 -1 -1 0 -1 1 -1 0 -2 -0 -3 0
-5 0 8 10 4 1 -7 -1 -2 -1 -0 2 -0 1 -1 -0 5 4 3 2 -2 -1 4 3 -1 -0 1 0 -1 -1 -0 -1 -0 -0 -1 -0 0 -1 0 -1 -1 -1 1 -0 -1 -0 -1 -1 -1
-6 4 5 4 0 -1 -5 -6 -2 -4 4 -1 -1 -1 0 -1 -3 -0 -0 5 2 -0 -0 -0 1 -0 -0 0 -0 -1 -0 0 -1 -1 1 -0 -0 1 -1 0 1 0 -2 1 0 0 -1 -1 -3
-4 3 3 4 -3 -1 -4 2 -2 1 -1 -2 -2 -1 1 2 -0 -1 1 -0 -1 5 2 1 0 -0 -1 -1 -2 -1 -1 0 -1 0 0 -2 -2 0 1 -1 -1 1 -0 -2 -1 1 -0 -1 1
1 1 4 -2 -2 -1 -2 3 -15 5 1 1 0 -2 -0 -1 4 -1 3 -2 3 -2 2 -3 -1 -2 -1 -1 -1 -2 -0 -1 -0 -0 -0 0 -1 -2 -0 -0 2 -1 -1 0 -2 -2 -1 -1 -0
-2 2 -1 1 6 1 -4 -14 -8 7 2 -1 -6 -7 -5 1 -1 9 0 2 -0 3 -2 3 -3 -0 1 1 -2 1 1 -1 -1 -0 1 1 -1 -0 1 -0 0 2 -2 0 -4 -1 -1 -1 -0
-2 -0 -4 9 3 8 -17 17 -2 8 3 -3 -3 -1 -4 2 -0 1 4 8 -4 -1 3 -3 -0 0 0 1 2 3 -2 -2 0 0 0 -1 2 -1 -1 -1 -0 1 -1 -0 -2 -1 -1 -1 -2
-8 1 3 -1 -5 -8 -17 18 7 -3 -10 2 1 6 0 1 1 6 3 -1 -4 -6 -6 -1 2 -0 1 -2 -1 2 1 -2 1 0 0 -1 0 -0 1 0 -2 -2 -1 0 0 -0 -0 -1 -0
12 9 4 1 -8 -9 -12 7 9 5 -1 -1 5 6 2 -1 13 -2 -4 -1 3 0 -4 -5 -3 4 1 -1 -3 -2 2 -0 3 0 1 2 3 2 -1 -2 1 -2 -1 -0 -0 -1 0 1 1
-7 -4 1 5 -8 -3 -2 -4 16 -1 -9 1 1 -3 -0 -1 0 -1 0 -1 -2 -3 2 2 -4 5 3 1 -1 2 4 -2 5 1 5 1 -1 -1 4 2 2 -0 -1 -1 -0 -1 -0 -1 0
-2 -2 4 6 -7 -5 -9 3 11 -4 1 -2 2 5 -0 -8 -1 -5 -1 -2 -0 2 -1 2 2 -1 5 3 7 -4 0 -0 2 3 3 2 5 1 2 -3 0 -0 -2 0 -1 -0 -0 -3 0
-3 1 4 -0 -4 -8 -5 5 0 -0 1 -1 -3 1 1 2 -1 -6 -5 -2 -2 5 4 -2 -2 1 -4 2 3 4 -2 2 -1 6 3 4 3 5 3 5 2 -0 -0 4 -1 1 1 -2 -1
-2 3 -1 -2 -7 -4 1 2 10 -6 1 2 1 -4 -8 -2 0 -3 -2 -2 -4 2 -3 0 0 -2 -1 -7 1 2 5 -3 7 4 -1 3 1 7 2 2 -0 4 2 3 5 4 4 -0 -1
1 -1 -1 -1 -6 -2 3 -12 24 1 -1 -2 -2 2 -1 -6 -1 -1 -4 -4 -3 -1 -3 -1 3 3 4 -1 -5 -3 -0 1 8 -1 5 5 3 6 3 -2 4 2 2 2 4 8 7 -2 -1
1 -1 -2 -2 -1 -3 -3 -5 12 2 -2 3 -5 -3 -5 -3 -2 -2 -2 -2 -1 -0 1 1 -0 -1 -3 -4 -4 -1 0 0 4 8 1 3 7 1 4 3 -0 5 3 1 2 2 4 0 -1
0 -2 -0 -2 -3 5 -1 -5 11 -5 4 0 -1 1 -2 -5 -3 -0 2 3 2 -2 -1 0 -0 4 2 1 -2 -1 -3 -1 -0 2 11 1 -0 4 5 4 3 5 6 3 2 1 1 -3 1
-2 -2 -0 0 -0 1 1 4 3 -0 -5 -3 -0 -1 1 1 -1 0 -1 -1 3 2 1 0 0 2 1 3 1 -4 -4 -2 -1 1 2 9 0 21 6 4 3 8 6 2 2 1 0 -1 -1
0 3 1 1 0 0 -2 7 -1 -1 -3 -7 -6 -5 -5 -3 3 -1 -7 -6 -4 -2 2 5 2 1 2 -2 3 3 0 0 0 1 2 -1 11 7 3 4 4 -2 -2 -2 -3 1 -1 1 0
2 0 1 2 1 1 2 5 -5 -1 -4 -3 -5 -3 5 1 -6 -5 -2 3 3 3 3 5 3 5 5 5 -1 -2 -0 1 2 1 1 0 2 7 2 4 5 0 -0 -0 1 1 2 1 2
1 2 -0 -1 -3 -2 2 2 -3 -7 -7 -0 -1 0 1 -3 -1 0 1 -4 -4 -3 -4 4 4 5 3 2 1 0 -2 -1 -1 -2 -3 -2 -0 9 -0 5 -0 1 2 1 1 -1 1 -1 -1
5 1 0 -4 0 2 4 -4 -4 -4 2 -2 2 -1 -1 -2 1 4 3 5 -1 -2 -1 -6 7 3 2 -4 -3 1 2 -3 2 0 -3 -2 5 2 2 1 1 2 2 -1 0 -0 0 0 -0
Height
5807 5813 5817 5820 5826 5829 5833 5835 5836 5839 5843 5844 5845 5847 5848 5849 5853 5856 5855 5855 5857 5859 5860 5860 5861 5862 5863 5863 5864 5864 5865 5866 5866 5866 5866 5866 5867 5868 5868 5868 5868 5868 5868 5868 5867 5867 5866 5866 5865
5801 5807 5811 5815 5821 5826 5830 5829 5832 5836 5839 5840 5841 5843 5845 5846 5850 5851 5851 5852 5854 5856 5857 5857 5858 5858 5860 5859 5861 5862 5863 5863 5863 5863 5863 5863 5863 5864 5864 5864 5865 5865 5865 5865 5865 5864 5864 5863 5863
5796 5801 5805 5808 5815 5824 5826 5825 5827 5833 5836 5837 5838 5840 5843 5845 5846 5848 5848 5850 5851 5853 5854 5855 5855 5856 5857 5857 5858 5858 5859 5859 5859 5860 5860 5860 5860 5860 5860 5861 5861 5861 5861 5860 5860 5860 5860 5860 5859
5790 5795 5799 5803 5814 5820 5821 5818 5824 5828 5830 5833 5835 5836 5840 5842 5844 5846 5847 5849 5850 5850 5852 5852 5853 5854 5855 5855 5856 5856 5856 5856 5856 5856 5856 5857 5857 5857 5857 5856 5856 5856 5856 5857 5856 5856 5856 5856 5856
5783 5788 5792 5799 5811 5816 5816 5812 5817 5823 5826 5829 5829 5831 5836 5840 5842 5843 5844 5845 5846 5847 5848 5849 5850 5852 5852 5853 5853 5854 5854 5853 5852 5853 5852 5852 5853 5853 5853 5853 5853 5853 5853 5853 5852 5852 5852 5852 5852
5776 5781 5786 5796 5808 5810 5810 5807 5811 5817 5822 5824 5825 5826 5831 5836 5838 5840 5841 5841 5843 5844 5844 5846 5847 5848 5848 5849 5850 5850 5850 5850 5850 5849 5849 5849 5849 5849 5849 5849 5849 5849 5848 5848 5848 5848 5848 5848 5848
5770 5775 5781 5791 5799 5802 5805 5801 5804 5810 5817 5821 5820 5820 5824 5833 5834 5835 5836 5837 5839 5840 5841 5842 5842 5843 5845 5845 5846 5846 5846 5846 5847 5846 5846 5846 5846 5846 5845 5845 5845 5844 5844 5844 5844 5844 5844 5844 5844
5763 5768 5773 5782 5791 5798 5797 5796 5797 5805 5812 5814 5813 5818 5822 5826 5828 5830 5832 5832 5833 5835 5836 5837 5838 5839 5840 5841 5841 5842 5841 5842 5843 5843 5843 5843 5843 5842 5842 5842 5841 5841 5840 5840 5839 5839 5839 5839 5839
5756 5760 5768 5777 5784 5790 5790 5791 5791 5798 5805 5807 5809 5814 5817 5819 5824 5826 5828 5829 5829 5829 5830 5831 5833 5834 5835 5836 5836 5837 5837 5837 5838 5838 5839 5838 5838 5838 5839 5838 5838 5837 5837 5836 5835 5835 5834 5834 5834
5748 5755 5764 5772 5777 5781 5781 5785 5787 5793 5798 5802 5805 5809 5811 5813 5817 5821 5823 5824 5825 5825 5826 5827 5828 5830 5831 5831 5831 5831 5832 5832 5833 5833 5834 5834 5834 5834 5834 5833 5833 5833 5832 5832 5831 5830 5830 5830 5830
5744 5751 5759 5763 5769 5774 5776 5780 5782 5786 5791 5797 5802 5803 5806 5808 5811 5816 5819 5820 5820 5820 5822 5823 5823 5825 5826 5826 5827 5827 5828 5828 5829 5829 5829 5829 5829 5829 5828 5828 5828 5828 5827 5827 5826 5826 5826 5825 5825
5738 5745 5749 5757 5761 5767 5769 5772 5776 5780 5789 5793 5797 5798 5801 5802 5804 5807 5811 5814 5814 5815 5815 5817 5819 5820 5821 5821 5822 5823 5823 5824 5824 5824 5824 5823 5823 5823 5823 5823 5823 5823 5822 5822 5821 5821 5821 5820 5820
5732 5738 5743 5750 5755 5760 5764 5767 5772 5779 5784 5786 5790 5792 5795 5797 5799 5801 5803 5806 5808 5811 5811 5812 5813 5814 5815 5816 5816 5817 5817 5818 5818 5819 5819 5819 5818 5818 5818 5817 5817 5817 5817 5817 5816 5816 5816 5815 5814
5725 5730 5737 5743 5749 5753 5759 5764 5767 5776 5777 5778 5784 5785 5787 5790 5793 5795 5798 5800 5802 5804 5805 5805 5806 5808 5808 5809 5809 5810 5810 5810 5811 5812 5813 5813 5813 5812 5812 5811 5810 5811 5811 5811 5810 5810 5810 5809 5808
5717 5723 5730 5737 5743 5748 5753 5759 5764 5768 5769 5771 5775 5778 5778 5781 5785 5790 5791 5792 5794 5797 5797 5799 5800 5800 5801 5803 5803 5804 5802 5803 5804 5805 5806 5807 5807 5806 5806 5805 5804 5805 5805 5804 5805 5804 5803 5803 5802
5711 5717 5724 5733 5738 5742 5745 5755 5757 5759 5764 5764 5766 5771 5773 5776 5777 5781 5784 5786 5786 5786 5789 5792 5792 5793 5794 5796 5795 5796 5796 5797 5799 5799 5800 5801 5801 5801 5801 5799 5798 5799 5799 5799 5798 5798 5797 5796 5795
5704 5710 5717 5725 5729 5733 5739 5746 5753 5752 5756 5758 5759 5764 5768 5769 5771 5774 5776 5777 5777 5777 5778 5781 5784 5785 5786 5788 5788 5789 5789 5790 5794 5794 5794 5795 5795 5795 5794 5793 5793 5793 5792 5792 5791 5791 5791 5790 5789
5701 5705 5712 5717 5723 5728 5733 5735 5747 5748 5749 5752 5753 5755 5759 5762 5765 5764 5766 5769 5770 5770 5771 5772 5775 5778 5779 5780 5780 5781 5783 5784 5787 5788 5788 5788 5789 5789 5789 5787 5787 5787 5786 5786 5785 5785 5784 5784 5783
5692 5698 5704 5711 5714 5720 5726 5727 5737 5740 5741 5744 5744 5745 5748 5752 5755 5756 5757 5760 5764 5765 5764 5765 5765 5768 5771 5773 5773 5774 5777 5777 5778 5779 5780 5780 5782 5782 5781 5779 5779 5780 5780 5779 5778 5778 5777 5776 5775
5687 5693 5700 5705 5709 5713 5719 5722 5728 5732 5734 5735 5736 5738 5741 5743 5746 5749 5750 5751 5754 5756 5755 5756 5758 5758 5761 5763 5765 5767 5768 5769 5770 5771 5773 5774 5776 5775 5773 5772 5771 5773 5773 5772 5771 5770 5769 5768 5767
5682 5688 5693 5698 5702 5706 5713 5716 5720 5724 5726 5728 5728 5730 5733 5736 5738 5739 5740 5742 5744 5747 5748 5748 5748 5748 5749 5751 5753 5757 5758 5761 5762 5764 5764 5766 5766 5765 5763 5763 5763 5764 5764 5763 5762 5761 5760 5760 5758
5677 5683 5687 5692 5696 5701 5705 5710 5715 5715 5717 5720 5721 5722 5724 5727 5728 5729 5730 5731 5733 5735 5736 5737 5738 5739 5739 5740 5744 5746 5749 5751 5753 5754 5754 5754 5756 5757 5757 5754 5754 5755 5754 5753 5751 5750 5750 5750 5750
5674 5678 5683 5687 5691 5695 5700 5703 5711 5708 5709 5711 5712 5715 5716 5717 5719 5721 5722 5723 5723 5724 5725 5726 5728 5730 5731 5732 5734 5736 5738 5740 5742 5743 5744 5745 5744 5746 5747 5746 5745 5745 5745 5745 5744 5743 5742 5741 5741
5671 5675 5679 5682 5686 5691 5694 5697 5701 5702 5704 5705 5706 5708 5709 5710 5710 5712 5712 5713 5713 5713 5714 5714 5715 5716 5716 5718 5721 5723 5725 5728 5730 5733 5733 5733 5735 5735 5735 5736 5735 5735 5735 5735 5735 5734 5733 5732 5732
5667 5672 5675 5680 5682 5687 5689 5693 5691 5696 5699 5700 5701 5702 5703 5703 5703 5703 5702 5703 5703 5703 5703 5703 5702 5702 5703 5705 5707 5709 5711 5712 5714 5717 5720 5720 5722 5726 5726 5724 5725 5725 5725 5725 5725 5725 5724 5723 5722
5663 5667 5671 5675 5679 5682 5685 5687 5687 5690 5692 5694 5695 5695 5695 5695 5694 5693 5693 5692 5691 5690 5689 5687 5687 5686 5687 5688 5689 5691 5694 5697 5700 5703 5705 5707 5709 5712 5715 5714 5713 5713 5713 5714 5714 5714 5713 5713 5712
5661 5666 5670 5673 5676 5678 5681 5684 5685 5685 5685 5686 5686 5686 5686 5685 5683 5681 5679 5677 5676 5674 5672 5671 5669 5669 5668 5668 5669 5672 5676 5679 5682 5685 5688 5691 5694 5697 5699 5701 5701 5701 5702 5703 5703 5703 5703 5704 5703
5660 5665 5668 5670 5672 5675 5678 5680 5679 5679 5679 5678 5677 5677 5676 5674 5671 5668 5665 5663 5661 5659 5656 5655 5652 5649 5649 5649 5650 5653 5657 5661 5664 5668 5672 5675 5679 5682 5684 5687 5689 5689 5690 5692 5692 5692 5693 5693 5692
5659 5662 5665 5667 5669 5671 5673 5675 5673 5672 5672 5670 5668 5666 5665 5663 5660 5657 5654 5650 5645 5640 5635 5632 5630 5629 5630 5630 5632 5636 5641 5646 5650 5654 5658 5661 5664 5668 5672 5674 5675 5677 5678 5680 5681 5682 5683 5682 5682
5657 5661 5663 5664 5666 5667 5667 5670 5667 5665 5663 5663 5661 5659 5657 5654 5650 5646 5640 5634 5626 5618 5609 5604 5601 5604 5605 5607 5612 5618 5623 5629 5635 5641 5645 5649 5652 5655 5658 5662 5664 5666 5669 5671 5672 5672 5673 5671 5671